| time (UTC) | temp F | wind direction | speed knots | gust knots | rain 1hr in | rain 24hr in | rain mn in | humidity % | barometer mb |
| 20260902150503 | 74 | 0 | 0.0 | 0.0 | 0.00 | 0.00 | 0.00 | 81 | 1011.2 |
| 20260902150008 | 74 | 0 | 0.0 | 0.0 | 0.00 | 0.00 | 0.00 | 81 | 1011.2 |
| 20260902145003 | 74 | 0 | 0.0 | 0.0 | 0.00 | 0.00 | 0.00 | 81 | 1011.2 |
| 20260902144507 | 74 | 0 | 0.0 | 0.0 | 0.00 | 0.00 | 0.00 | 81 | 1011.2 |
| 20260902144004 | 74 | 0 | 0.0 | 0.0 | 0.00 | 0.00 | 0.00 | 81 | 1011.2 |
| 20260902143504 | 74 | 0 | 0.0 | 0.0 | 0.00 | 0.00 | 0.00 | 81 | 1011.2 |
| 20260902143008 | 74 | 0 | 0.0 | 0.0 | 0.00 | 0.00 | 0.00 | 81 | 1011.2 |
| 20260902142504 | 74 | 0 | 0.0 | 0.0 | 0.00 | 0.00 | 0.00 | 81 | 1011.2 |
| 20260902142003 | 74 | 0 | 0.0 | 0.0 | 0.00 | 0.00 | 0.00 | 81 | 1011.3 |
| 20260902141507 | 74 | 0 | 0.0 | 0.0 | 0.00 | 0.00 | 0.00 | 81 | 1011.3 |
| 20260902141004 | 74 | 0 | 0.0 | 0.0 | 0.00 | 0.00 | 0.00 | 81 | 1011.3 |
| 20260902140007 | 74 | 0 | 0.0 | 0.0 | 0.00 | 0.00 | 0.00 | 81 | 1011.6 |
| 20260902135504 | 74 | 0 | 0.0 | 0.0 | 0.00 | 0.00 | 0.00 | 81 | 1011.4 |
| 20260902135003 | 74 | 0 | 0.0 | 0.0 | 0.00 | 0.00 | 0.00 | 81 | 1011.5 |
| 20260902134508 | 74 | 0 | 0.0 | 0.0 | 0.00 | 0.00 | 0.00 | 81 | 1011.3 |
| 20260902134004 | 74 | 0 | 0.0 | 0.0 | 0.00 | 0.00 | 0.00 | 81 | 1011.4 |
| 20260902133503 | 74 | 0 | 0.0 | 0.0 | 0.00 | 0.00 | 0.00 | 81 | 1011.6 |
| 20260902133008 | 74 | 0 | 0.0 | 0.0 | 0.00 | 0.00 | 0.00 | 81 | 1011.7 |
| 20260902132003 | 74 | 0 | 0.0 | 0.0 | 0.00 | 0.00 | 0.00 | 81 | 1011.5 |
| 20260902131508 | 74 | 0 | 0.0 | 0.0 | 0.00 | 0.00 | 0.00 | 81 | 1011.6 |
| 20260902131003 | 74 | 0 | 0.0 | 0.0 | 0.00 | 0.00 | 0.00 | 81 | 1011.8 |
| 20260902130503 | 74 | 0 | 0.0 | 0.0 | 0.00 | 0.00 | 0.00 | 81 | 1011.7 |
| 20260902130008 | 74 | 0 | 0.0 | 0.0 | 0.00 | 0.00 | 0.00 | 81 | 1011.7 |
| 20260902125503 | 74 | 0 | 0.0 | 0.0 | 0.00 | 0.00 | 0.00 | 81 | 1011.9 |
| 20260902125003 | 74 | 0 | 0.0 | 0.0 | 0.00 | 0.00 | 0.00 | 81 | 1011.9 |
| 20260902123503 | 74 | 0 | 0.0 | 0.0 | 0.00 | 0.00 | 0.00 | 81 | 1011.8 |
| 20260902123008 | 74 | 0 | 0.0 | 0.0 | 0.00 | 0.00 | 0.00 | 81 | 1011.7 |
| 20260902122503 | 74 | 0 | 0.0 | 0.0 | 0.00 | 0.00 | 0.00 | 81 | 1011.8 |
| 20260902122003 | 74 | 0 | 0.0 | 0.0 | 0.00 | 0.00 | 0.00 | 81 | 1011.7 |
| 20260902121508 | 74 | 0 | 0.0 | 0.0 | 0.00 | 0.00 | 0.00 | 81 | 1011.8 |
| 20260902121003 | 74 | 0 | 0.0 | 0.0 | 0.00 | 0.00 | 0.00 | 81 | 1011.6 |
| 20260902120503 | 74 | 0 | 0.0 | 0.0 | 0.00 | 0.00 | 0.00 | 81 | 1011.4 |
| 20260902120008 | 74 | 0 | 0.0 | 0.0 | 0.00 | 0.00 | 0.00 | 81 | 1011.4 |
| 20260902115503 | 74 | 0 | 0.0 | 0.0 | 0.00 | 0.00 | 0.00 | 81 | 1011.4 |
| 20260902115003 | 74 | 0 | 0.0 | 0.0 | 0.00 | 0.00 | 0.00 | 81 | 1011.4 |
| 20260902114508 | 74 | 0 | 0.0 | 0.0 | 0.00 | 0.00 | 0.00 | 81 | 1011.3 |
| 20260902114003 | 74 | 0 | 0.0 | 0.0 | 0.00 | 0.00 | 0.00 | 81 | 1011.2 |
| 20260902113503 | 74 | 0 | 0.0 | 0.0 | 0.00 | 0.00 | 0.00 | 81 | 1011.2 |
| 20260902113007 | 74 | 0 | 0.0 | 0.0 | 0.00 | 0.00 | 0.00 | 81 | 1011.2 |
| 20260902112004 | 74 | 0 | 0.0 | 0.0 | 0.00 | 0.00 | 0.00 | 81 | 1011.3 |
| 20260902111507 | 74 | 0 | 0.0 | 0.0 | 0.00 | 0.00 | 0.00 | 81 | 1011.2 |
| 20260902111003 | 74 | 0 | 0.0 | 0.0 | 0.00 | 0.00 | 0.00 | 81 | 1011.1 |
| 20260902110009 | 74 | 0 | 0.0 | 0.0 | 0.00 | 0.00 | 0.00 | 81 | 1011.2 |
| 20260902105504 | 74 | 0 | 0.0 | 0.0 | 0.00 | 0.00 | 0.00 | 81 | 1011.1 |
| 20260902105003 | 74 | 0 | 0.0 | 0.0 | 0.00 | 0.00 | 0.00 | 81 | 1011.2 |
| 20260902104507 | 74 | 0 | 0.0 | 0.0 | 0.00 | 0.00 | 0.00 | 81 | 1011.2 |
| 20260902104004 | 74 | 0 | 0.0 | 0.0 | 0.00 | 0.00 | 0.00 | 81 | 1011.2 |
| 20260902103503 | 74 | 0 | 0.0 | 0.0 | 0.00 | 0.00 | 0.00 | 81 | 1011.2 |
| 20260902103007 | 74 | 0 | 0.0 | 0.0 | 0.00 | 0.00 | 0.00 | 81 | 1011.2 |
| 20260902102504 | 74 | 0 | 0.0 | 0.0 | 0.00 | 0.00 | 0.00 | 81 | 1011.3 |
| 20260902101507 | 74 | 0 | 0.0 | 0.0 | 0.00 | 0.00 | 0.00 | 81 | 1011.4 |
| 20260902101004 | 75 | 0 | 0.0 | 0.0 | 0.00 | 0.00 | 0.00 | 80 | 1011.5 |
| 20260902100503 | 75 | 0 | 0.0 | 0.0 | 0.00 | 0.00 | 0.00 | 79 | 1011.6 |
| 20260902100008 | 75 | 0 | 0.0 | 0.0 | 0.00 | 0.00 | 0.00 | 79 | 1011.6 |
| 20260902095504 | 75 | 196 | 0.0 | 0.9 | 0.00 | 0.00 | 0.00 | 79 | 1011.6 |
| 20260902095003 | 74 | 61 | 0.0 | 2.6 | 0.00 | 0.00 | 0.00 | 79 | 1011.6 |
| 20260902094508 | 74 | 34 | 0.0 | 2.6 | 0.00 | 0.00 | 0.00 | 79 | 1011.6 |
| 20260902094003 | 74 | 0 | 0.0 | 0.0 | 0.00 | 0.00 | 0.00 | 78 | 1011.7 |
| 20260902093503 | 75 | 0 | 0.0 | 0.0 | 0.00 | 0.00 | 0.00 | 77 | 1011.7 |
| 20260902093008 | 75 | 0 | 0.0 | 0.0 | 0.00 | 0.00 | 0.00 | 77 | 1011.7 |
| 20260902092504 | 75 | 0 | 0.0 | 0.0 | 0.00 | 0.00 | 0.00 | 77 | 1011.6 |
| 20260902092003 | 75 | 0 | 0.0 | 0.0 | 0.00 | 0.00 | 0.00 | 77 | 1011.7 |
| 20260902091508 | 76 | 0 | 0.0 | 0.0 | 0.00 | 0.00 | 0.00 | 76 | 1011.7 |
| 20260902091003 | 76 | 0 | 0.0 | 0.0 | 0.00 | 0.00 | 0.00 | 76 | 1011.7 |
| 20260902090504 | 76 | 0 | 0.0 | 0.0 | 0.00 | 0.00 | 0.00 | 75 | 1011.7 |
| 20260902090007 | 77 | 0 | 0.0 | 0.0 | 0.00 | 0.00 | 0.00 | 75 | 1011.7 |
| 20260902085504 | 77 | 288 | 0.0 | 0.9 | 0.00 | 0.00 | 0.00 | 74 | 1011.8 |
| 20260902085003 | 77 | 278 | 0.0 | 0.9 | 0.00 | 0.00 | 0.00 | 74 | 1011.8 |
| 20260902084507 | 78 | 304 | 0.0 | 1.7 | 0.00 | 0.00 | 0.00 | 74 | 1011.8 |
| 20260902084004 | 78 | 18 | 0.0 | 1.7 | 0.00 | 0.00 | 0.00 | 73 | 1011.7 |
| 20260902083504 | 78 | 147 | 0.0 | 1.7 | 0.00 | 0.00 | 0.00 | 73 | 1011.7 |
| 20260902083008 | 78 | 44 | 0.0 | 2.6 | 0.00 | 0.00 | 0.00 | 72 | 1011.9 |
| 20260902082504 | 78 | 16 | 0.9 | 3.5 | 0.00 | 0.00 | 0.00 | 71 | 1011.9 |
| 20260902082003 | 78 | 354 | 1.7 | 5.2 | 0.00 | 0.00 | 0.00 | 71 | 1012.0 |
| 20260902081507 | 78 | 354 | 0.9 | 5.2 | 0.00 | 0.00 | 0.00 | 71 | 1012.1 |
| 20260902081004 | 78 | 17 | 0.9 | 2.6 | 0.00 | 0.00 | 0.00 | 72 | 1011.7 |
| 20260902080503 | 78 | 26 | 0.9 | 4.3 | 0.00 | 0.00 | 0.00 | 72 | 1011.5 |
| 20260902080008 | 77 | 9 | 1.7 | 4.3 | 0.00 | 0.00 | 0.00 | 72 | 1011.7 |
| 20260902075003 | 77 | 0 | 0.0 | 0.0 | 0.00 | 0.00 | 0.00 | 72 | 1011.3 |
| 20260902074507 | 78 | 0 | 0.0 | 0.0 | 0.00 | 0.00 | 0.00 | 71 | 1011.1 |
| 20260902074004 | 78 | 0 | 0.0 | 0.0 | 0.00 | 0.00 | 0.00 | 70 | 1011.0 |
| 20260902073503 | 78 | 177 | 0.0 | 1.7 | 0.00 | 0.00 | 0.00 | 71 | 1010.9 |
| 20260902072503 | 79 | 187 | 0.9 | 1.7 | 0.00 | 0.00 | 0.00 | 69 | 1010.9 |
| 20260902072003 | 79 | 179 | 0.9 | 1.7 | 0.00 | 0.00 | 0.00 | 69 | 1010.9 |
| 20260902071507 | 79 | 174 | 0.0 | 1.7 | 0.00 | 0.00 | 0.00 | 69 | 1010.9 |
| 20260902070504 | 79 | 188 | 0.9 | 3.5 | 0.00 | 0.00 | 0.00 | 68 | 1010.9 |
| 20260902065503 | 80 | 179 | 0.9 | 2.6 | 0.00 | 0.00 | 0.00 | 68 | 1011.0 |
| 20260902065003 | 80 | 186 | 0.9 | 5.2 | 0.00 | 0.00 | 0.00 | 67 | 1011.0 |
| 20260902064508 | 80 | 187 | 0.9 | 5.2 | 0.00 | 0.00 | 0.00 | 67 | 1011.0 |
| 20260902064004 | 80 | 181 | 0.9 | 3.5 | 0.00 | 0.00 | 0.00 | 67 | 1011.0 |
| 20260902063503 | 80 | 182 | 0.9 | 2.6 | 0.00 | 0.00 | 0.00 | 67 | 1011.0 |
| 20260902063008 | 80 | 198 | 0.9 | 5.2 | 0.00 | 0.00 | 0.00 | 67 | 1011.0 |
| 20260902062504 | 80 | 194 | 0.9 | 5.2 | 0.00 | 0.00 | 0.00 | 67 | 1010.9 |
| 20260902061508 | 80 | 194 | 1.7 | 5.2 | 0.00 | 0.00 | 0.00 | 67 | 1010.7 |
| 20260902060503 | 81 | 195 | 1.7 | 5.2 | 0.00 | 0.00 | 0.00 | 67 | 1010.6 |
| 20260902060008 | 81 | 195 | 1.7 | 4.3 | 0.00 | 0.00 | 0.00 | 67 | 1010.5 |
| 20260902055503 | 81 | 192 | 1.7 | 3.5 | 0.00 | 0.00 | 0.00 | 67 | 1010.4 |
| 20260902055003 | 81 | 189 | 0.9 | 3.5 | 0.00 | 0.00 | 0.00 | 67 | 1010.5 |
| 20260902054508 | 81 | 193 | 1.7 | 3.5 | 0.00 | 0.00 | 0.00 | 67 | 1010.5 |
| 20260902054003 | 81 | 196 | 1.7 | 3.5 | 0.00 | 0.00 | 0.00 | 67 | 1010.5 |
| 20260902053504 | 81 | 197 | 0.9 | 4.3 | 0.00 | 0.00 | 0.00 | 67 | 1010.6 |
| 20260902053007 | 82 | 193 | 0.9 | 4.3 | 0.00 | 0.00 | 0.00 | 67 | 1010.6 |
| 20260902052504 | 82 | 189 | 0.9 | 4.3 | 0.00 | 0.00 | 0.00 | 67 | 1010.7 |
| 20260902051507 | 82 | 200 | 0.9 | 2.6 | 0.00 | 0.00 | 0.00 | 67 | 1010.8 |
| 20260902050504 | 82 | 188 | 0.9 | 3.5 | 0.00 | 0.00 | 0.00 | 66 | 1010.7 |
| 20260902050009 | 83 | 196 | 0.9 | 4.3 | 0.00 | 0.00 | 0.00 | 66 | 1010.7 |
| 20260902045504 | 83 | 200 | 0.9 | 4.3 | 0.00 | 0.00 | 0.00 | 66 | 1010.8 |
| 20260902045003 | 83 | 193 | 0.9 | 3.5 | 0.00 | 0.00 | 0.00 | 66 | 1010.8 |
| 20260902044003 | 83 | 186 | 1.7 | 4.3 | 0.00 | 0.00 | 0.00 | 65 | 1010.8 |
| 20260902043504 | 84 | 193 | 1.7 | 5.2 | 0.00 | 0.00 | 0.00 | 65 | 1010.7 |
| 20260902043008 | 84 | 200 | 1.7 | 5.2 | 0.00 | 0.00 | 0.00 | 66 | 1010.8 |
| 20260902042003 | 84 | 193 | 1.7 | 5.2 | 0.00 | 0.00 | 0.00 | 65 | 1010.7 |
| 20260902041508 | 84 | 190 | 0.9 | 2.6 | 0.00 | 0.00 | 0.00 | 66 | 1010.8 |
| 20260902041004 | 84 | 188 | 0.9 | 3.5 | 0.00 | 0.00 | 0.00 | 66 | 1010.8 |
| 20260902040504 | 84 | 186 | 0.9 | 3.5 | 0.00 | 0.00 | 0.00 | 66 | 1010.8 |
| 20260902040008 | 84 | 185 | 0.9 | 3.5 | 0.00 | 0.00 | 0.00 | 66 | 1010.8 |
| 20260902035503 | 84 | 183 | 0.9 | 3.5 | 0.00 | 0.00 | 0.00 | 67 | 1010.8 |
| 20260902035003 | 84 | 184 | 0.0 | 2.6 | 0.00 | 0.00 | 0.00 | 68 | 1010.8 |
| 20260902034507 | 84 | 190 | 0.0 | 2.6 | 0.00 | 0.00 | 0.00 | 69 | 1010.9 |
| 20260902034004 | 84 | 189 | 0.9 | 2.6 | 0.00 | 0.00 | 0.00 | 69 | 1010.9 |
| 20260902033008 | 84 | 177 | 0.0 | 1.7 | 0.00 | 0.00 | 0.00 | 69 | 1010.9 |
| 20260902032503 | 84 | 189 | 0.0 | 0.9 | 0.00 | 0.00 | 0.00 | 69 | 1010.8 |
| 20260902031508 | 85 | 188 | 0.0 | 0.9 | 0.00 | 0.00 | 0.00 | 68 | 1010.7 |
| 20260902031003 | 85 | 188 | 0.0 | 0.9 | 0.00 | 0.00 | 0.00 | 68 | 1010.7 |
| 20260902030503 | 85 | 200 | 0.0 | 1.7 | 0.00 | 0.00 | 0.00 | 68 | 1010.7 |
| 20260902025503 | 85 | 181 | 0.0 | 2.6 | 0.00 | 0.00 | 0.00 | 68 | 1010.6 |
| 20260902025003 | 85 | 193 | 0.0 | 1.7 | 0.00 | 0.00 | 0.00 | 69 | 1010.6 |
| 20260902024508 | 85 | 191 | 0.0 | 1.7 | 0.00 | 0.00 | 0.00 | 69 | 1010.4 |
| 20260902024003 | 85 | 189 | 0.0 | 0.9 | 0.00 | 0.00 | 0.00 | 70 | 1010.5 |
| 20260902023503 | 85 | 190 | 0.0 | 1.7 | 0.00 | 0.00 | 0.00 | 69 | 1010.4 |
| 20260902022003 | 85 | 0 | 0.0 | 0.0 | 0.00 | 0.00 | 0.00 | 71 | 1010.1 |
| 20260902021004 | 85 | 0 | 0.0 | 0.0 | 0.00 | 0.00 | 0.00 | 70 | 1010.0 |
| 20260902020503 | 86 | 0 | 0.0 | 0.0 | 0.00 | 0.00 | 0.00 | 71 | 1010.0 |
| 20260902020007 | 86 | 194 | 0.0 | 0.9 | 0.00 | 0.00 | 0.00 | 70 | 1009.9 |
| 20260902015504 | 86 | 194 | 0.0 | 0.9 | 0.00 | 0.00 | 0.00 | 70 | 1009.9 |
| 20260902014507 | 86 | 0 | 0.0 | 0.0 | 0.00 | 0.00 | 0.00 | 69 | 1009.8 |
| 20260902014004 | 87 | 0 | 0.0 | 0.0 | 0.00 | 0.00 | 0.00 | 68 | 1009.6 |
| 20260902013504 | 87 | 0 | 0.0 | 0.0 | 0.00 | 0.00 | 0.00 | 69 | 1009.6 |
| 20260902013007 | 87 | 194 | 0.0 | 0.9 | 0.00 | 0.00 | 0.00 | 67 | 1009.6 |
| 20260902012504 | 88 | 194 | 0.0 | 0.9 | 0.00 | 0.00 | 0.00 | 67 | 1009.6 |
| 20260902012003 | 88 | 0 | 0.0 | 0.0 | 0.00 | 0.00 | 0.00 | 66 | 1009.4 |
| 20260902011508 | 88 | 0 | 0.0 | 0.0 | 0.00 | 0.00 | 0.00 | 65 | 1009.4 |
| 20260902011004 | 89 | 0 | 0.0 | 0.0 | 0.00 | 0.00 | 0.00 | 64 | 1009.4 |
| 20260902010503 | 89 | 0 | 0.0 | 0.0 | 0.00 | 0.00 | 0.00 | 64 | 1009.5 |
| 20260902005004 | 91 | 192 | 0.9 | 1.7 | 0.00 | 0.00 | 0.00 | 62 | 1009.4 |
| 20260902004508 | 91 | 192 | 0.9 | 5.2 | 0.00 | 0.00 | 0.00 | 60 | 1009.3 |
| 20260902004003 | 91 | 185 | 0.9 | 5.2 | 0.00 | 0.00 | 0.00 | 60 | 1009.2 |
| 20260902003503 | 92 | 183 | 0.9 | 4.3 | 0.00 | 0.00 | 0.00 | 60 | 1009.3 |
| 20260902002503 | 92 | 195 | 0.9 | 2.6 | 0.00 | 0.00 | 0.00 | 60 | 1009.3 |
| 20260902002004 | 92 | 185 | 0.9 | 3.5 | 0.00 | 0.00 | 0.00 | 60 | 1009.4 |
| 20260902001508 | 93 | 174 | 0.9 | 3.5 | 0.00 | 0.00 | 0.00 | 59 | 1009.4 |
| 20260902001004 | 93 | 181 | 0.9 | 2.6 | 0.00 | 0.00 | 0.00 | 58 | 1009.4 |
| 20260901235503 | 94 | 195 | 1.7 | 3.5 | 0.00 | 0.00 | 0.00 | 56 | 1009.5 |
| 20260901235004 | 94 | 191 | 1.7 | 4.3 | 0.00 | 0.00 | 0.00 | 57 | 1009.5 |
| 20260901234508 | 94 | 187 | 0.9 | 4.3 | 0.00 | 0.00 | 0.00 | 57 | 1009.5 |
| 20260901233504 | 94 | 182 | 1.7 | 5.2 | 0.00 | 0.00 | 0.00 | 57 | 1009.7 |
| 20260901233008 | 94 | 187 | 1.7 | 5.2 | 0.00 | 0.00 | 0.00 | 56 | 1009.7 |
| 20260901232504 | 94 | 188 | 1.7 | 5.2 | 0.00 | 0.00 | 0.00 | 56 | 1009.7 |
| 20260901232003 | 94 | 190 | 1.7 | 6.1 | 0.00 | 0.00 | 0.00 | 57 | 1009.8 |
| 20260901231507 | 94 | 189 | 2.6 | 7.8 | 0.00 | 0.00 | 0.00 | 57 | 1009.8 |
| 20260901231003 | 94 | 185 | 2.6 | 7.8 | 0.00 | 0.00 | 0.00 | 56 | 1009.7 |
| 20260901230504 | 95 | 185 | 2.6 | 6.1 | 0.00 | 0.00 | 0.00 | 56 | 1009.8 |
| 20260901230008 | 95 | 184 | 2.6 | 6.1 | 0.00 | 0.00 | 0.00 | 57 | 1009.8 |
| 20260901225504 | 95 | 189 | 1.7 | 8.7 | 0.00 | 0.00 | 0.00 | 57 | 1009.9 |
| 20260901225004 | 95 | 197 | 1.7 | 8.7 | 0.00 | 0.00 | 0.00 | 58 | 1010.0 |
| 20260901224508 | 95 | 199 | 0.9 | 4.3 | 0.00 | 0.00 | 0.00 | 59 | 1010.0 |
| 20260901224003 | 95 | 193 | 1.7 | 3.5 | 0.00 | 0.00 | 0.00 | 58 | 1010.0 |
| 20260901223503 | 94 | 191 | 2.6 | 7.0 | 0.00 | 0.00 | 0.00 | 58 | 1010.0 |
| 20260901223008 | 95 | 190 | 3.5 | 10.4 | 0.00 | 0.00 | 0.00 | 57 | 1010.0 |
| 20260901222503 | 94 | 191 | 3.5 | 10.4 | 0.00 | 0.00 | 0.00 | 57 | 1010.1 |
| 20260901222003 | 95 | 191 | 3.5 | 8.7 | 0.00 | 0.00 | 0.00 | 58 | 1010.0 |
| 20260901220504 | 94 | 195 | 2.6 | 7.8 | 0.00 | 0.00 | 0.00 | 58 | 1010.2 |
| 20260901220008 | 94 | 202 | 2.6 | 6.1 | 0.00 | 0.00 | 0.00 | 58 | 1010.2 |
| 20260901215503 | 94 | 197 | 2.6 | 7.8 | 0.00 | 0.00 | 0.00 | 58 | 1010.3 |
| 20260901215003 | 94 | 193 | 2.6 | 7.8 | 0.00 | 0.00 | 0.00 | 58 | 1010.2 |
| 20260901214508 | 94 | 193 | 2.6 | 7.8 | 0.00 | 0.00 | 0.00 | 57 | 1010.3 |
| 20260901214004 | 94 | 201 | 1.7 | 7.8 | 0.00 | 0.00 | 0.00 | 59 | 1010.3 |
| 20260901213503 | 94 | 197 | 1.7 | 7.8 | 0.00 | 0.00 | 0.00 | 58 | 1010.3 |
| 20260901213008 | 94 | 192 | 2.6 | 5.2 | 0.00 | 0.00 | 0.00 | 59 | 1010.4 |
| 20260901212503 | 94 | 193 | 2.6 | 5.2 | 0.00 | 0.00 | 0.00 | 59 | 1010.4 |
| 20260901212004 | 94 | 191 | 1.7 | 5.2 | 0.00 | 0.00 | 0.00 | 59 | 1010.4 |
| 20260901211508 | 94 | 185 | 2.6 | 7.0 | 0.00 | 0.00 | 0.00 | 60 | 1010.5 |
| 20260901211003 | 94 | 184 | 2.6 | 7.0 | 0.00 | 0.00 | 0.00 | 60 | 1010.6 |
| 20260901210503 | 94 | 191 | 2.6 | 6.1 | 0.00 | 0.00 | 0.00 | 59 | 1010.6 |
| 20260901210008 | 94 | 193 | 2.6 | 6.1 | 0.00 | 0.00 | 0.00 | 60 | 1010.8 |
| 20260901205503 | 94 | 192 | 2.6 | 8.7 | 0.00 | 0.00 | 0.00 | 59 | 1010.8 |
| 20260901205004 | 94 | 189 | 2.6 | 8.7 | 0.00 | 0.00 | 0.00 | 59 | 1010.8 |
| 20260901204508 | 94 | 184 | 2.6 | 6.1 | 0.00 | 0.00 | 0.00 | 59 | 1010.9 |
| 20260901204004 | 94 | 187 | 2.6 | 6.1 | 0.00 | 0.00 | 0.00 | 59 | 1010.9 |
| 20260901203503 | 94 | 185 | 2.6 | 5.2 | 0.00 | 0.00 | 0.00 | 58 | 1011.0 |
| 20260901203008 | 95 | 186 | 1.7 | 5.2 | 0.00 | 0.00 | 0.00 | 58 | 1011.0 |
| 20260901202504 | 95 | 193 | 1.7 | 4.3 | 0.00 | 0.00 | 0.00 | 59 | 1011.1 |
| 20260901202004 | 95 | 187 | 1.7 | 4.3 | 0.00 | 0.00 | 0.00 | 59 | 1011.2 |
| 20260901200503 | 94 | 189 | 2.6 | 8.7 | 0.00 | 0.00 | 0.00 | 58 | 1011.4 |
| 20260901195503 | 94 | 192 | 2.6 | 7.0 | 0.00 | 0.00 | 0.00 | 58 | 1011.4 |
| 20260901195004 | 94 | 193 | 2.6 | 7.0 | 0.00 | 0.00 | 0.00 | 57 | 1011.5 |
| 20260901194508 | 94 | 189 | 2.6 | 6.1 | 0.00 | 0.00 | 0.00 | 56 | 1011.5 |
| 20260901194003 | 94 | 187 | 1.7 | 6.1 | 0.00 | 0.00 | 0.00 | 58 | 1011.6 |
| 20260901193503 | 94 | 188 | 2.6 | 5.2 | 0.00 | 0.00 | 0.00 | 56 | 1011.6 |
| 20260901193007 | 94 | 185 | 2.6 | 6.1 | 0.00 | 0.00 | 0.00 | 57 | 1011.7 |
| 20260901192503 | 94 | 186 | 1.7 | 6.1 | 0.00 | 0.00 | 0.00 | 56 | 1011.7 |
| 20260901192004 | 94 | 184 | 1.7 | 7.0 | 0.00 | 0.00 | 0.00 | 57 | 1011.7 |
| 20260901191507 | 93 | 188 | 1.7 | 7.0 | 0.00 | 0.00 | 0.00 | 57 | 1011.8 |
| 20260901190007 | 93 | 190 | 1.7 | 6.1 | 0.00 | 0.00 | 0.00 | 58 | 1011.9 |
| 20260901184507 | 92 | 190 | 1.7 | 5.2 | 0.00 | 0.00 | 0.00 | 57 | 1012.0 |
| 20260901184003 | 92 | 187 | 2.6 | 5.2 | 0.00 | 0.00 | 0.00 | 58 | 1012.1 |
| 20260901183503 | 92 | 190 | 2.6 | 6.1 | 0.00 | 0.00 | 0.00 | 60 | 1012.1 |
| 20260901182503 | 91 | 184 | 1.7 | 5.2 | 0.00 | 0.00 | 0.00 | 58 | 1012.1 |
| 20260901182004 | 92 | 181 | 1.7 | 6.1 | 0.00 | 0.00 | 0.00 | 58 | 1012.1 |
| 20260901181507 | 92 | 179 | 0.9 | 6.1 | 0.00 | 0.00 | 0.00 | 58 | 1012.1 |
| 20260901180503 | 90 | 187 | 1.7 | 7.0 | 0.00 | 0.00 | 0.00 | 60 | 1012.2 |
| 20260901180007 | 90 | 185 | 1.7 | 7.0 | 0.00 | 0.00 | 0.00 | 60 | 1012.3 |
| 20260901175503 | 90 | 187 | 1.7 | 5.2 | 0.00 | 0.00 | 0.00 | 57 | 1012.3 |
| 20260901175003 | 91 | 193 | 1.7 | 5.2 | 0.00 | 0.00 | 0.00 | 59 | 1012.4 |
| 20260901174507 | 90 | 188 | 1.7 | 5.2 | 0.00 | 0.00 | 0.00 | 62 | 1012.5 |
| 20260901174004 | 90 | 182 | 1.7 | 5.2 | 0.00 | 0.00 | 0.00 | 59 | 1012.5 |
| 20260901173007 | 90 | 193 | 0.9 | 2.6 | 0.00 | 0.00 | 0.00 | 61 | 1012.5 |
| 20260901172004 | 89 | 194 | 0.9 | 3.5 | 0.00 | 0.00 | 0.00 | 62 | 1012.6 |
| 20260901171507 | 89 | 191 | 0.9 | 5.2 | 0.00 | 0.00 | 0.00 | 60 | 1012.6 |
| 20260901171003 | 89 | 184 | 0.9 | 5.2 | 0.00 | 0.00 | 0.00 | 61 | 1012.7 |
| 20260901170008 | 88 | 182 | 0.9 | 3.5 | 0.00 | 0.00 | 0.00 | 62 | 1012.8 |
| 20260901165503 | 88 | 188 | 1.7 | 4.3 | 0.00 | 0.00 | 0.00 | 60 | 1012.7 |
| 20260901164508 | 87 | 194 | 1.7 | 5.2 | 0.00 | 0.00 | 0.00 | 62 | 1012.8 |
| 20260901164004 | 87 | 195 | 1.7 | 4.3 | 0.00 | 0.00 | 0.00 | 62 | 1012.9 |
| 20260901163503 | 87 | 193 | 0.9 | 2.6 | 0.00 | 0.00 | 0.00 | 61 | 1012.8 |
| 20260901163007 | 87 | 194 | 0.9 | 2.6 | 0.00 | 0.00 | 0.00 | 63 | 1012.8 |
| 20260901162503 | 87 | 199 | 0.9 | 2.6 | 0.00 | 0.00 | 0.00 | 61 | 1012.8 |
| 20260901160504 | 86 | 185 | 0.9 | 3.5 | 0.00 | 0.00 | 0.00 | 62 | 1012.9 |
| 20260901160008 | 86 | 189 | 0.9 | 3.5 | 0.00 | 0.00 | 0.00 | 64 | 1012.8 |
| 20260901155504 | 86 | 188 | 0.0 | 2.6 | 0.00 | 0.00 | 0.00 | 63 | 1012.8 |
| 20260901154508 | 85 | 183 | 0.9 | 3.5 | 0.00 | 0.00 | 0.00 | 65 | 1012.7 |
| 20260901154004 | 84 | 181 | 0.9 | 3.5 | 0.00 | 0.00 | 0.00 | 66 | 1012.7 |
| 20260901153503 | 84 | 172 | 0.9 | 1.7 | 0.00 | 0.00 | 0.00 | 66 | 1012.8 |
| 20260901153008 | 84 | 158 | 0.9 | 2.6 | 0.00 | 0.00 | 0.00 | 67 | 1012.7 |
| 20260901152504 | 84 | 156 | 0.0 | 2.6 | 0.00 | 0.00 | 0.00 | 68 | 1012.6 |
| 20260901151507 | 83 | 181 | 0.9 | 3.5 | 0.00 | 0.00 | 0.00 | 67 | 1012.7 |
| 20260901151004 | 83 | 176 | 0.0 | 3.5 | 0.00 | 0.00 | 0.00 | 68 | 1012.7 |